Weather in Kostyukovichi

Belarus     53˚21′04″N   32˚03′30″E
temp.,
°C
wind,
m/s
gust,
m/s
humid.,
%
clouds,
%
prec.,
mm/h
press.,
hPa
HPBL,
m
2 december, wed
wed200:00ene369295 0.0 1032380
03:00−2˚ene369097 0.0 1032445
06:00−2˚e4885100 0.0 1031368
09:00−2˚e3781100 0.0 1032428
12:00−1˚ese4869100 0.0 1031593
15:00−2˚ese4776100 0.1 1030655
18:00−3˚se4791100 0.1 1030540
21:00−3˚se488799 0.3 1029596
3 december, thu
thu300:00−3˚se4785100 0.1 1029534
03:00−3˚se4788100 0.1 1029443
06:00−3˚se4792100 0.3 1028411
09:00−3˚se479099 0.4 1029408
12:00−2˚se478598 0.1 1028443
15:00−2˚se478493 0.1 1028456
18:00−2˚se4692100 0.1 1027452
21:00−2˚se479099 0.1 1027356
4 december, fri
fri400:00−2˚se4791100 0.0 1027323
03:00−2˚se4891100 0.0 1027323
06:00−2˚se5109396 0.1 1026369
09:00−1˚se5109496 0.1 1027356
12:00+1˚se61188100 0.0 1027484
15:00se61189100 0.0 1027471
18:00se61291100 0.0 1027458
21:00se61389100 0.0 1028472
5 december, sat
sat500:00−2˚se61092100 0.0 1028473
03:00se61089100 0.0 1029625
06:00se61089100 0.0 1028675
09:00−1˚se51089100 0.0 1029468
12:00−1˚se51087100 0.0 1030468
15:00se51086100 0.0 1030503
18:00−1˚se5108797 0.0 1030517
21:00−2˚se6109098 0.0 1032521
6 december, sun
sun600:00−1˚se61088100 0.0 1032549
03:00−4˚se5107895 0.0 1033436
06:00−4˚se510670 0.0 1033403
09:00−5˚se611610 0.0 1034425
12:00−3˚se611510 0.0 1034443
15:00−3˚se612500 0.0 1033457
18:00−4˚ese612610 0.0 1033440
21:00−5˚ese612630 0.0 1034444